Location: Ferchesar
(52.6477°N, 12.4298°E)
Time: 17:06:57
(UTC+01:00)

Envisat - Pass Details

Date: 10 October 2022
Orbit: 763 x 765 km, 98.2° (Epoch: 30 November)

Event Time Altitude Azimuth Distance (km) Brightness Sun altitude
Rises 04:54:50 0° 20° (NNE) 3,247 6.8 -23.5°
Reaches altitude 10° 04:57:21 10° 29° (NNE) 2,316 6.1 -23.1°
Maximum altitude 05:02:02 36° 95° (E) 1,207 4.5 -22.5°
Drops below altitude 10° 05:06:41 10° 162° (SSE) 2,298 5.5 -21.8°
Sets 05:09:09 0° 171° (S) 3,219 6.1 -21.4°
